Terug naar catalogus

STARLINK-30335

ActiefCommunicatieVLEO
NORAD 57710·PAYLOAD·🇺🇸 United States

Gelanceerd Aug 27, 2023 vanaf Cape Canaveral Space Force Station

Loading…

Volgende Passages (komende 24 uur)

TLE

VersSource: CelesTrak SupGP

Epoch: Sep 15, 2026, 02:54 UTC

1 57710C 23129N   26258.12131944  .00063318  00000+0  22934-2 0  2585
2 57710  43.0012 127.9572 0001488 274.8306 145.3757 15.27546929    19

Volg STARLINK-30335 in realtime met AllMySat

Download on the App Store